Location: ??????
(42.0089°N, 44.3281°E)
Time: 12:12:31
(UTC+00:00)

NOSS 8 (H) - Pass Details

Date: 29 May 2022
Orbit: 366 x 1779 km, 63.3° (Epoch: 28 June)

Event Time Altitude Azimuth Distance (km) Brightness Sun altitude
Rises 18:23:10 0° 332° (NNW) 2,479 9.9 -16.7°
Reaches altitude 10° 18:25:07 10° 340° (NNW) 1,719 8.5 -16.9°
Maximum altitude 18:28:43 40° 52° (NE) 905 5.9 -17.3°
Enters shadow 18:30:55 25° 105° (ESE) 1,377 6.4 -17.6°
